Tracking 28126 objects as of 1-Oct-2023
HD Live streaming from Space Station
objects crossing your sky now

STARLINK-3749

Track STARLINK-3749 now!
10-day predictions
STARLINK-3749 is classified as:


NORAD ID: 52313
Int'l Code: 2022-041BE
Perigee: 545.7 km
Apogee: 548.0 km
Inclination: 53.2 °
Period: 95.4 minutes
Semi major axis: 6917 km
RCS: Unknown
Launch date: April 21, 2022
Source: United States (US)
Launch site: AIR FORCE EASTERN TEST RANGE (AFETR)
Your satellite tracking list
Your tracking list is empty




NASA's NSSDC Master Catalog

Two Line Element Set (TLE):
1 52313U 22041BE  23273.33216786  .00002494  00000-0  17472-3 0  9999
2 52313  53.2140 130.5827 0001651  81.2679 278.8500 15.08840196 81307
Source of the keplerian elements: AFSPC